FW7071 Weather Reports


Display with metric or nautical units.
time (UTC)temp
F
wind
direction
speed
MPH
gust
MPH
rain 1hr
in
rain 24hr
in
rain mn
in
humidity
%
barometer
mb
20260508121018 51 314 7.0 8.0 0.00 0.00 0.00 72 1015.9
20260508120515 51 288 2.0 2.0 0.00 0.00 0.00 74 1015.7
20260508120013 51 133 1.0 2.0 0.00 0.00 0.00 74 1015.6
20260508115510 51 304 5.0 7.0 0.00 0.00 0.00 75 1015.4
20260508115006 50 46 1.0 1.0 0.00 0.00 0.00 75 1015.6
20260508114503 50 351 1.0 2.0 0.00 0.00 0.00 78 1015.4
20260508114000 49 98 0.0 0.0 0.00 0.00 0.00 80 1015.3
20260508113458 49 204 2.0 2.0 0.00 0.00 0.00 80 1015.3
20260508112955 49 212 1.0 1.0 0.00 0.00 0.00 79 1015.5
20260508112451 48 164 1.0 2.0 0.00 0.00 0.00 80 1015.4
20260508111948 48 231 1.0 1.0 0.00 0.00 0.00 81 1015.4
20260508111445 48 232 1.0 1.0 0.00 0.00 0.00 81 1015.3
20260508110942 47 250 1.0 2.0 0.00 0.00 0.00 82 1015.3
20260508110440 47 264 1.0 1.0 0.00 0.00 0.00 83 1015.2
20260508105939 46 242 0.0 0.0 0.00 0.00 0.00 83 1015.4
20260508105436 46 246 0.0 0.0 0.00 0.00 0.00 84 1015.0
20260508104933 46 249 0.0 0.0 0.00 0.00 0.00 84 1015.1
20260508104431 46 237 0.0 1.0 0.00 0.00 0.00 84 1015.0
20260508103927 45 233 0.0 0.0 0.00 0.00 0.00 85 1015.0
20260508103424 45 236 1.0 1.0 0.00 0.00 0.00 85 1015.0
20260508102921 45 239 0.0 0.0 0.00 0.00 0.00 86 1014.9
20260508102420 45 244 0.0 0.0 0.00 0.00 0.00 86 1015.1
20260508101916 44 250 0.0 0.0 0.00 0.00 0.00 87 1015.0
20260508101414 44 240 0.0 0.0 0.00 0.00 0.00 87 1014.9
20260508100911 44 235 0.0 0.0 0.00 0.00 0.00 87 1014.8
20260508100410 44 235 0.0 0.0 0.00 0.00 0.00 86 1014.6
20260508095910 45 240 0.0 0.0 0.00 0.00 0.00 86 1014.8
20260508095409 45 232 0.0 0.0 0.00 0.00 0.00 86 1014.7
20260508094905 45 245 1.0 1.0 0.00 0.00 0.00 85 1014.8
20260508094402 45 231 0.0 0.0 0.00 0.00 0.00 85 1014.5
20260508093859 45 246 0.0 0.0 0.00 0.00 0.00 84 1014.8
20260508093357 46 240 1.0 1.0 0.00 0.00 0.00 84 1014.5
20260508092854 45 236 1.0 1.0 0.00 0.00 0.00 84 1014.7
20260508092352 45 240 1.0 2.0 0.00 0.00 0.00 84 1014.7
20260508091850 45 231 1.0 1.0 0.00 0.00 0.00 84 1014.7
20260508091345 46 238 0.0 0.0 0.00 0.00 0.00 84 1014.9
20260508090844 46 225 0.0 1.0 0.00 0.00 0.00 84 1014.5
20260508090342 46 225 1.0 2.0 0.00 0.00 0.00 83 1014.6
20260508085837 46 235 1.0 2.0 0.00 0.00 0.00 83 1014.6
20260508085335 46 236 0.0 0.0 0.00 0.00 0.00 83 1014.5
20260508084831 46 231 1.0 1.0 0.00 0.00 0.00 83 1014.6
20260508084328 46 244 1.0 1.0 0.00 0.00 0.00 82 1014.4
20260508083826 46 239 1.0 1.0 0.00 0.00 0.00 82 1014.5
20260508083323 46 243 1.0 2.0 0.00 0.00 0.00 82 1014.4
20260508082823 46 241 1.0 1.0 0.00 0.00 0.00 82 1014.4
20260508082320 47 236 0.0 0.0 0.00 0.00 0.00 82 1014.3
20260508081817 47 249 0.0 1.0 0.00 0.00 0.00 82 1014.0
20260508081314 47 271 0.0 1.0 0.00 0.00 0.00 82 1014.2
20260508080812 47 228 1.0 1.0 0.00 0.00 0.00 82 1014.0
20260508080310 47 228 0.0 0.0 0.00 0.00 0.00 81 1013.9
20260508075806 48 232 1.0 1.0 0.00 0.00 0.00 81 1013.8
20260508075308 48 235 0.0 0.0 0.00 0.00 0.00 80 1013.8
20260508074801 48 234 0.0 1.0 0.00 0.00 0.00 80 1013.7
20260508074257 48 290 3.0 5.0 0.00 0.00 0.00 80 1013.9
20260508073754 48 297 2.0 3.0 0.00 0.00 0.00 79 1013.8
20260508073253 48 300 2.0 2.0 0.00 0.00 0.00 79 1013.5
20260508072748 49 283 2.0 2.0 0.00 0.00 0.00 78 1013.5
20260508072245 49 286 0.0 1.0 0.00 0.00 0.00 78 1013.3
20260508071742 49 316 1.0 1.0 0.00 0.00 0.00 77 1013.5
20260508071241 49 292 3.0 3.0 0.00 0.00 0.00 77 1013.5
20260508070738 50 222 0.0 1.0 0.00 0.00 0.00 76 1013.5
20260508070236 50 241 2.0 3.0 0.00 0.00 0.00 75 1013.5
20260508065733 50 310 5.0 7.0 0.00 0.00 0.00 74 1013.3
20260508065231 50 349 5.0 7.0 0.00 0.00 0.00 74 1013.4
20260508064728 51 91 1.0 1.0 0.00 0.00 0.00 73 1013.3
20260508064227 51 138 1.0 1.0 0.00 0.00 0.00 73 1013.1
20260508063724 51 70 1.0 1.0 0.00 0.00 0.00 73 1013.3
20260508063221 51 298 2.0 3.0 0.00 0.00 0.00 72 1013.4
20260508062719 51 274 1.0 1.0 0.00 0.00 0.00 71 1013.0
20260508062216 52 299 2.0 3.0 0.00 0.00 0.00 70 1013.0
20260508061713 52 169 0.0 1.0 0.00 0.00 0.00 69 1012.8
20260508061210 51 74 2.0 2.0 0.00 0.00 0.00 70 1012.8
20260508060706 52 92 0.0 0.0 0.00 0.00 0.00 69 1012.6
20260508060204 52 297 3.0 3.0 0.00 0.00 0.00 69 1012.6
20260508055659 52 165 1.0 1.0 0.00 0.00 0.00 68 1012.5
20260508055156 53 33 3.0 3.0 0.00 0.00 0.00 67 1012.7
20260508054653 53 251 3.0 6.0 0.00 0.00 0.00 66 1012.3
20260508054151 53 324 8.0 11.0 0.00 0.00 0.00 64 1012.4
20260508053648 52 277 2.0 2.0 0.00 0.00 0.00 68 1012.3
20260508053145 53 220 0.0 0.0 0.00 0.00 0.00 66 1011.9
20260508052642 53 290 2.0 2.0 0.00 0.00 0.00 66 1011.8
20260508052139 53 243 1.0 1.0 0.00 0.00 0.00 67 1011.7
20260508051635 53 245 1.0 1.0 0.00 0.00 0.00 68 1011.6
20260508051130 52 225 0.0 0.0 0.00 0.00 0.00 69 1011.5
20260508050627 52 225 0.0 0.0 0.00 0.00 0.00 70 1011.6
20260508050125 52 227 0.0 0.0 0.00 0.00 0.00 72 1011.4
20260508045620 53 254 1.0 2.0 0.00 0.00 0.00 72 1011.6
20260508045119 53 258 1.0 1.0 0.00 0.00 0.00 71 1011.5
20260508044616 53 272 1.0 2.0 0.00 0.00 0.00 71 1011.4
20260508044111 52 263 2.0 2.0 0.00 0.00 0.00 73 1011.2
20260508043608 52 215 1.0 1.0 0.00 0.00 0.00 74 1011.0
20260508043106 52 210 0.0 1.0 0.00 0.00 0.00 76 1011.4
20260508042602 52 201 0.0 0.0 0.00 0.00 0.00 76 1011.0
20260508042100 52 191 0.0 0.0 0.00 0.00 0.00 77 1011.0
20260508041556 53 214 0.0 0.0 0.00 0.00 0.00 77 1011.1
20260508041052 54 215 0.0 0.0 0.00 0.00 0.00 75 1011.0
20260508040549 54 258 1.0 1.0 0.00 0.00 0.00 66 1011.1
20260508040047 55 256 0.0 1.0 0.00 0.33 0.33 65 1011.1
20260508035544 55 248 1.0 1.0 0.00 0.33 0.33 64 1011.0
20260508035041 54 225 0.0 1.0 0.00 0.33 0.33 65 1010.9
20260508034538 55 230 0.0 1.0 0.00 0.33 0.33 64 1010.9
20260508034035 55 222 0.0 0.0 0.00 0.33 0.33 65 1010.9
20260508033533 55 223 0.0 0.0 0.00 0.33 0.33 68 1011.0
20260508033031 55 231 0.0 0.0 0.00 0.33 0.33 63 1010.8
20260508032527 55 227 0.0 1.0 0.00 0.33 0.33 62 1010.9
20260508032025 55 247 1.0 1.0 0.00 0.33 0.33 62 1010.9
20260508031521 55 265 1.0 2.0 0.00 0.33 0.33 62 1011.0
20260508031017 54 224 1.0 1.0 0.00 0.33 0.33 64 1010.7
20260508030514 54 217 1.0 1.0 0.00 0.33 0.33 65 1010.7
20260508030013 53 199 0.0 0.0 0.00 0.33 0.33 69 1010.9
20260508025508 53 198 0.0 0.0 0.00 0.33 0.33 68 1010.8
20260508025005 53 199 0.0 0.0 0.00 0.33 0.33 68 1010.8
20260508024501 53 197 0.0 0.0 0.00 0.33 0.33 70 1010.7
20260508023958 54 195 0.0 0.0 0.00 0.33 0.33 73 1010.8
20260508023454 55 193 0.0 0.0 0.00 0.33 0.33 68 1010.8
20260508022952 55 193 0.0 0.0 0.00 0.33 0.33 58 1011.0
20260508022447 55 191 0.0 1.0 0.00 0.33 0.33 58 1011.0
20260508021944 55 197 0.0 0.0 0.00 0.33 0.33 58 1011.0
20260508021441 55 199 0.0 1.0 0.00 0.33 0.33 59 1010.7
20260508020937 55 205 0.0 0.0 0.00 0.33 0.33 58 1010.7
20260508020435 55 204 0.0 1.0 0.00 0.33 0.33 59 1010.8
20260508015931 55 203 0.0 0.0 0.00 0.33 0.33 58 1010.8
20260508015429 55 204 1.0 1.0 0.00 0.33 0.33 61 1010.7
20260508014926 55 198 1.0 1.0 0.00 0.33 0.33 58 1010.6
20260508014423 54 179 0.0 0.0 0.00 0.33 0.33 58 1010.6
20260508013918 54 179 0.0 0.0 0.00 0.33 0.33 58 1010.5
20260508013414 54 179 0.0 0.0 0.00 0.33 0.33 59 1010.5
20260508012912 54 172 0.0 0.0 0.00 0.33 0.33 59 1010.6
20260508012409 54 170 0.0 0.0 0.00 0.33 0.33 58 1010.5
20260508011906 54 169 0.0 0.0 0.00 0.33 0.33 59 1010.5
20260508011404 55 169 0.0 0.0 0.00 0.33 0.33 60 1010.6
20260508010901 55 154 0.0 0.0 0.00 0.33 0.33 58 1010.4
20260508010358 55 153 0.0 0.0 0.00 0.33 0.33 59 1010.3
20260508005855 55 153 0.0 0.0 0.00 0.33 0.33 57 1010.3
20260508005352 55 153 0.0 0.0 0.00 0.33 0.33 55 1010.3
20260508004848 55 153 0.0 0.0 0.00 0.33 0.33 55 1010.3
20260508004344 55 153 0.0 0.0 0.00 0.33 0.33 54 1010.2
20260508003841 55 153 0.0 0.0 0.00 0.33 0.33 57 1010.3
20260508003338 55 153 0.0 0.0 0.00 0.33 0.33 56 1010.3
20260508002835 55 153 0.0 0.0 0.00 0.33 0.33 56 1010.3
20260508002332 55 153 0.0 0.0 0.00 0.33 0.33 56 1010.3
20260508001828 56 153 0.0 0.0 0.00 0.33 0.33 55 1010.1
20260508001324 56 153 0.0 0.0 0.00 0.33 0.33 54 1010.1
20260508000821 56 153 0.0 0.0 0.00 0.33 0.33 55 1010.2
20260508000319 56 152 0.0 0.0 0.00 0.33 0.33 55 1010.2
20260507235814 57 152 0.0 0.0 0.00 0.33 0.33 54 1010.1
20260507235311 57 152 0.0 0.0 0.00 0.33 0.33 52 1009.8
20260507234808 58 152 0.0 0.0 0.00 0.33 0.33 52 1009.9
20260507234305 59 152 0.0 0.0 0.00 0.33 0.33 49 1009.9
20260507233801 60 152 0.0 0.0 0.00 0.33 0.33 47 1010.0
20260507233259 60 154 0.0 0.0 0.00 0.33 0.33 47 1009.7
20260507232757 62 259 0.0 1.0 0.00 0.33 0.33 45 1009.9
20260507232253 62 297 4.0 5.0 0.00 0.33 0.33 41 1009.6
20260507231750 63 260 1.0 1.0 0.00 0.33 0.33 42 1009.6
20260507231247 62 259 1.0 1.0 0.00 0.33 0.33 42 1009.6
20260507230743 63 276 2.0 2.0 0.00 0.33 0.33 41 1009.8
20260507230241 64 291 1.0 1.0 0.00 0.33 0.33 40 1009.8
20260507225740 63 282 1.0 1.0 0.00 0.33 0.33 41 1009.7
20260507225237 63 128 1.0 1.0 0.00 0.33 0.33 42 1009.7
20260507224732 65 185 0.0 0.0 0.00 0.33 0.33 42 1009.5
20260507224230 65 249 2.0 2.0 0.00 0.33 0.33 40 1009.6
20260507223726 64 282 0.0 1.0 0.00 0.33 0.33 41 1009.6
20260507223222 64 171 0.0 1.0 0.00 0.33 0.33 43 1009.7
20260507222719 63 241 1.0 1.0 0.00 0.33 0.33 43 1009.7
20260507222216 64 178 0.0 0.0 0.00 0.33 0.33 43 1009.5
20260507221712 65 230 0.0 1.0 0.00 0.33 0.33 41 1009.7
20260507221209 64 292 3.0 3.0 0.00 0.33 0.33 40 1009.5
20260507220705 65 261 7.0 8.0 0.00 0.33 0.33 39 1009.9
20260507220204 65 244 4.0 5.0 0.00 0.33 0.33 40 1009.8
20260507215659 64 290 3.0 5.0 0.00 0.33 0.33 40 1009.9
20260507215157 64 291 2.0 5.0 0.00 0.33 0.33 41 1009.9
20260507214654 64 279 6.0 8.0 0.00 0.33 0.33 41 1009.7
20260507214151 64 236 5.0 6.0 0.00 0.33 0.33 40 1010.0
20260507213646 66 230 8.0 9.0 0.00 0.33 0.33 39 1009.8
20260507213144 65 280 3.0 6.0 0.00 0.33 0.33 39 1009.9
20260507212640 66 243 1.0 1.0 0.00 0.33 0.33 39 1009.9
20260507212137 65 78 1.0 1.0 0.00 0.33 0.33 43 1009.7
20260507211634 65 281 1.0 2.0 0.00 0.33 0.33 42 1009.7
20260507211129 65 292 3.0 5.0 0.00 0.33 0.33 39 1009.8
20260507210627 66 265 3.0 3.0 0.00 0.33 0.33 41 1009.8
20260507210124 66 257 2.0 2.0 0.00 0.33 0.33 40 1009.7
20260507205620 66 172 1.0 1.0 0.00 0.33 0.33 41 1009.7
20260507205117 66 244 1.0 2.0 0.00 0.33 0.33 39 1009.5
20260507204613 66 241 1.0 1.0 0.00 0.33 0.33 41 1009.6
20260507204111 66 253 4.0 6.0 0.00 0.33 0.33 40 1009.7
20260507203609 67 219 3.0 3.0 0.00 0.33 0.33 38 1009.6
20260507203106 66 285 4.0 5.0 0.00 0.33 0.33 39 1009.8
20260507202601 65 270 4.0 6.0 0.00 0.33 0.33 38 1009.7
20260507202058 65 250 4.0 7.0 0.00 0.33 0.33 39 1009.9
20260507201553 66 270 5.0 7.0 0.00 0.33 0.33 39 1009.7
20260507201050 66 282 5.0 7.0 0.00 0.33 0.33 39 1009.5
20260507200545 66 227 1.0 1.0 0.00 0.33 0.33 41 1009.6
20260507200042 65 69 1.0 1.0 0.00 0.33 0.33 41 1009.7
20260507195539 64 278 5.0 6.0 0.00 0.33 0.33 40 1009.4
20260507195037 64 278 6.0 7.0 0.00 0.33 0.33 38 1009.7
20260507194532 65 302 9.0 14.0 0.00 0.33 0.33 38 1009.9
20260507194029 64 278 3.0 3.0 0.00 0.33 0.33 41 1009.9
20260507193526 65 303 3.0 5.0 0.00 0.33 0.33 40 1010.1
20260507193023 65 335 4.0 7.0 0.00 0.33 0.33 39 1009.9
20260507192519 64 207 4.0 5.0 0.00 0.33 0.33 42 1010.2
20260507192016 64 272 4.0 7.0 0.00 0.33 0.33 40 1009.9
20260507191511 64 233 3.0 7.0 0.00 0.33 0.33 42 1010.3
20260507191009 64 295 7.0 10.0 0.00 0.33 0.33 40 1010.4
20260507190506 66 317 5.0 6.0 0.00 0.33 0.33 38 1010.3
20260507190006 66 202 0.0 1.0 0.00 0.33 0.33 42 1010.4
20260507185502 65 187 0.0 0.0 0.00 0.33 0.33 44 1010.4
20260507184958 63 239 3.0 5.0 0.00 0.33 0.33 43 1010.4
20260507184457 65 209 4.0 6.0 0.00 0.33 0.33 42 1010.5
20260507183954 64 225 1.0 1.0 0.00 0.33 0.33 40 1010.4
20260507183450 63 142 3.0 5.0 0.00 0.33 0.33 45 1010.6
20260507182948 62 255 2.0 3.0 0.00 0.33 0.33 41 1010.7
20260507182443 62 248 5.0 6.0 0.00 0.33 0.33 42 1010.5
20260507181940 64 57 1.0 2.0 0.00 0.33 0.33 42 1010.8
20260507181436 64 298 5.0 7.0 0.00 0.33 0.33 43 1010.8
20260507180933 63 214 1.0 1.0 0.00 0.33 0.33 42 1010.7
20260507180430 62 297 4.0 6.0 0.00 0.33 0.33 43 1010.9
20260507175926 62 299 6.0 7.0 0.00 0.33 0.33 43 1011.1
20260507175422 62 338 3.0 5.0 0.00 0.33 0.33 42 1011.2
20260507174920 62 95 2.0 3.0 0.00 0.33 0.33 46 1010.7
20260507174417 62 112 3.0 3.0 0.00 0.33 0.33 46 1010.9
20260507173915 62 295 2.0 3.0 0.00 0.33 0.33 45 1011.2
20260507173412 61 218 3.0 3.0 0.00 0.33 0.33 46 1011.4
20260507172908 62 195 2.0 3.0 0.00 0.33 0.33 46 1011.5
20260507172405 62 175 2.0 2.0 0.00 0.33 0.33 49 1011.5
20260507171901 63 303 3.0 8.0 0.00 0.33 0.33 47 1011.5
20260507171358 63 305 4.0 6.0 0.00 0.33 0.33 46 1011.7
20260507170855 62 142 3.0 5.0 0.00 0.33 0.33 47 1011.7
20260507170351 61 189 3.0 3.0 0.00 0.33 0.33 45 1011.7
20260507165847 61 303 7.0 8.0 0.00 0.33 0.33 45 1011.7
20260507165343 62 150 0.0 0.0 0.00 0.33 0.33 47 1012.3
20260507164839 62 176 2.0 3.0 0.00 0.33 0.33 47 1011.8
20260507164337 62 196 1.0 1.0 0.00 0.33 0.33 50 1012.1
20260507163834 62 188 1.0 2.0 0.00 0.33 0.33 49 1012.3
20260507163331 61 79 3.0 5.0 0.00 0.33 0.33 51 1012.2
20260507162827 61 181 1.0 2.0 0.00 0.33 0.33 51 1012.4
20260507162323 61 186 3.0 7.0 0.00 0.33 0.33 48 1012.5
20260507161820 61 55 2.0 3.0 0.00 0.33 0.33 49 1012.4
20260507161317 61 82 2.0 5.0 0.00 0.33 0.33 53 1012.5
20260507160813 60 221 1.0 1.0 0.00 0.33 0.33 57 1012.5
20260507160309 60 84 2.0 3.0 0.00 0.33 0.33 53 1012.4
20260507155805 59 10 6.0 7.0 0.00 0.33 0.33 52 1012.4
20260507155305 59 202 3.0 5.0 0.00 0.33 0.33 52 1012.7
20260507154758 59 56 2.0 2.0 0.00 0.33 0.33 53 1012.5
20260507154256 60 199 2.0 3.0 0.00 0.33 0.33 54 1012.9
20260507153752 60 345 4.0 6.0 0.00 0.33 0.33 54 1012.9
20260507153248 59 71 3.0 6.0 0.00 0.33 0.33 57 1012.9
20260507152745 59 197 1.0 1.0 0.00 0.33 0.33 58 1013.0
20260507152242 57 185 0.0 2.0 0.00 0.33 0.33 64 1013.0
20260507151737 56 191 0.0 0.0 0.00 0.33 0.33 59 1013.1
20260507151234 57 290 2.0 5.0 0.00 0.33 0.33 60 1013.1
20260507150731 57 206 1.0 2.0 0.00 0.33 0.33 63 1013.3
20260507150228 57 112 1.0 1.0 0.00 0.33 0.33 61 1013.3
20260507145724 57 94 2.0 2.0 0.00 0.33 0.33 61 1013.5
20260507145221 58 318 5.0 7.0 0.00 0.33 0.33 61 1013.5
20260507144718 57 220 1.0 2.0 0.00 0.33 0.33 62 1013.6
20260507144216 58 275 2.0 2.0 0.00 0.33 0.33 61 1013.6
20260507143712 58 307 2.0 3.0 0.00 0.33 0.33 62 1013.7
20260507143209 56 132 1.0 2.0 0.00 0.33 0.33 65 1013.8
20260507142704 56 235 2.0 5.0 0.00 0.33 0.33 66 1013.7
20260507142202 56 124 0.0 0.0 0.00 0.33 0.33 68 1013.5
20260507141657 56 207 1.0 1.0 0.00 0.33 0.33 68 1013.7
20260507141155 55 171 1.0 1.0 0.00 0.33 0.33 69 1013.6
20260507140651 55 312 2.0 2.0 0.00 0.33 0.33 73 1013.6
20260507140149 55 99 3.0 3.0 0.00 0.33 0.33 75 1013.9
20260507135646 54 296 1.0 2.0 0.00 0.33 0.33 73 1014.0
20260507135143 54 316 7.0 9.0 0.00 0.33 0.33 75 1013.8
20260507134639 54 317 5.0 9.0 0.00 0.33 0.33 73 1014.0
20260507134135 53 316 5.0 7.0 0.00 0.33 0.33 76 1014.1
20260507133631 52 187 0.0 1.0 0.00 0.33 0.33 78 1014.0
20260507133129 52 167 1.0 1.0 0.00 0.33 0.33 80 1014.0
20260507132626 52 12 3.0 3.0 0.00 0.33 0.33 79 1014.2
20260507132122 53 119 0.0 1.0 0.00 0.33 0.33 81 1013.8
20260507131619 53 279 3.0 6.0 0.00 0.33 0.33 79 1013.9
20260507131117 55 54 2.0 3.0 0.00 0.33 0.33 79 1013.6
20260507130613 55 313 8.0 10.0 0.00 0.33 0.33 78 1013.7
20260507130111 54 70 1.0 1.0 0.00 0.33 0.33 79 1013.9
20260507125610 54 86 1.0 1.0 0.00 0.33 0.33 83 1013.8
20260507125107 53 81 0.0 1.0 0.00 0.33 0.33 84 1013.8
20260507124603 52 130 1.0 1.0 0.00 0.33 0.33 83 1014.0
20260507124101 51 104 0.0 0.0 0.00 0.33 0.33 88 1013.8
20260507123559 50 88 0.0 0.0 0.00 0.33 0.33 90 1014.0
20260507123055 51 105 0.0 0.0 0.00 0.33 0.33 91 1014.0
20260507122550 51 93 1.0 2.0 0.00 0.33 0.33 91 1013.8
20260507122046 51 223 1.0 1.0 0.00 0.33 0.33 92 1013.8
20260507121542 51 98 0.0 0.0 0.00 0.33 0.33 92 1014.0